{"data":{"norad_id":39423,"epoch":"2026-09-19T08:38:03.494688Z","epoch_age_seconds":112962,"freshness":"FRESH","line1":"1 39423U 13066H   26262.35976267  .00000400  00000+0  81956-4 0  9996","line2":"2 39423  97.7342  44.9087 0161436 295.4991  62.9588 14.58196804680454","mean_motion":14.58196804,"eccentricity":0.0161436,"inclination_deg":97.7342,"raan_deg":44.9087,"arg_perigee_deg":295.4991,"mean_anomaly_deg":62.9588,"bstar":8.1956e-5,"rev_number":68045,"period_min":98.752102325963,"perigee_km":584.75183701941,"apogee_km":813.25285043825,"semimajor_km":7077.1393437288,"source":"CELESTRAK","updated_at":"2026-09-20T09:00:48.022426Z"}}